RH
62 36 41 36 26 23 16 8 5 4 4 4 3 2 3 2 2 2 2 3 3 3 4 4 5 6 9 11 11 11 10 12 15 27 78 100 100 100 100 93 98 100 100 100 100
64 44 41 37 36 28 20 11 5 5 5 4 3 2 2 2 2 2 2 2 3 3 3 4 4 5 7 12 12 13 10 11 16 17 65 100 100 100 100 100 100 100 100 100 100
77 51 46 43 38 38 28 13 6 5 5 4 3 2 2 2 2 2 2 2 2 3 3 4 4 5 6 10 12 12 10 13 15 16 16 86 100 100 100 100 100 100 100 100 100
79 46 47 45 41 37 29 15 6 5 4 4 4 2 2 2 2 2 2 2 2 3 3 4 4 4 6 8 14 13 13 11 11 12 13 15 35 86 100 96 99 100 100 100 100
82 50 54 44 39 42 26 15 6 6 5 4 4 2 2 2 2 2 2 2 2 2 3 3 4 5 6 10 14 16 13 12 11 8 12 16 20 38 99 100 100 98 100 100 100
79 52 53 48 42 51 29 16 7 6 4 4 4 2 2 2 2 2 2 2 2 3 3 3 4 5 6 9 12 20 14 11 10 12 13 16 16 30 84 100 100 100 100 100 100
77 53 48 48 49 54 34 16 8 6 4 4 3 2 2 2 2 1 2 2 2 2 4 4 4 4 6 8 14 16 15 13 12 12 13 14 18 20 68 100 100 100 100 100 100
79 57 51 51 57 50 38 26 9 7 6 4 2 2 2 2 2 2 2 2 2 3 4 4 4 5 6 8 11 17 17 14 12 13 14 14 18 20 54 100 100 100 100 100 100
74 66 61 49 70 54 39 30 12 8 7 4 2 2 2 2 2 2 2 2 2 2 3 5 6 5 6 8 11 14 16 16 14 12 15 15 17 21 21 69 99 100 100 100 100
66 72 61 56 67 53 42 39 21 8 7 4 3 2 2 2 2 2 2 2 2 2 3 5 5 5 6 8 10 12 14 15 15 14 15 15 17 18 19 75 99 100 100 100 100
70 78 61 58 73 62 43 41 30 9 6 3 3 2 2 2 2 1 2 2 2 2 3 5 6 7 7 9 12 13 19 19 18 14 15 16 16 18 19 37 89 94 100 100 100
72 81 67 64 68 58 42 46 34 12 6 4 4 2 2 2 1 1 2 2 2 2 4 5 7 8 7 8 10 13 13 20 20 21 18 16 16 18 19 20 62 84 100 100 100
79 90 73 67 71 57 46 44 34 15 6 4 3 2 2 2 2 1 2 2 2 3 4 5 6 8 8 8 12 14 14 18 24 23 18 17 19 18 19 19 22 57 94 99 100
87 90 73 70 75 61 48 45 42 20 7 4 3 2 2 2 2 2 2 2 2 3 4 5 7 12 10 10 12 14 15 20 28 24 20 17 20 19 19 19 18 20 33 66 86
83 82 68 76 75 64 51 48 42 25 9 4 3 3 2 2 2 2 2 2 2 4 6 7 9 15 12 11 14 16 17 23 23 26 22 19 20 19 21 20 20 19 18 19 25
91 86 71 84 80 68 54 56 51 27 13 5 2 3 2 2 2 2 2 2 2 3 5 7 12 16 13 12 13 16 16 16 17 20 23 21 20 21 19 18 18 18 19 19 18
89 86 75 82 86 71 55 60 48 32 16 5 3 3 3 2 2 3 3 3 3 4 5 7 10 16 15 13 13 15 17 17 16 19 24 22 21 21 21 19 17 17 19 19 19
92 93 83 82 81 70 55 64 46 33 20 6 4 3 4 3 3 4 4 4 4 4 5 5 9 14 15 14 16 16 16 16 17 18 17 18 18 18 18 20 20 19 18 19 20
100 95 92 81 85 69 53 65 49 34 26 11 5 4 4 5 3 4 5 5 4 6 7 12 15 16 17 16 16 16 14 19 19 20 20 17 16 14 13 16 22 21 21 20 20
100 95 98 86 75 74 56 64 49 40 36 18 7 4 3 6 6 4 6 6 6 6 8 10 14 20 22 21 18 17 18 20 19 19 17 17 15 12 13 14 16 22 23 24 22
100 99 92 96 73 78 62 68 49 42 46 32 10 6 5 5 8 7 5 8 8 8 8 8 12 16 22 25 24 20 20 19 19 20 18 16 15 12 13 14 15 16 20 23 24
99 99 85 99 73 79 65 67 51 44 49 42 21 8 6 6 9 11 7 6 9 9 9 10 12 15 16 20 24 24 21 20 19 18 17 17 16 15 14 16 15 15 16 19 23
90 96 84 92 77 80 70 66 50 40 51 50 34 11 8 7 9 10 10 7 7 10 10 11 13 16 19 22 23 25 24 22 18 18 19 19 17 18 15 15 14 14 16 17 21
94 94 91 74 81 90 77 69 51 39 50 53 43 31 10 8 10 10 10 9 8 8 11 12 13 15 15 18 20 24 26 26 25 23 24 23 20 20 15 14 15 15 17 18 19
100 84 90 70 92 92 77 70 52 38 49 48 43 50 27 10 11 11 12 15 11 9 9 12 16 15 17 18 20 20 22 27 30 28 26 27 25 20 18 15 14 17 18 18 19
89 95 79 70 96 95 73 70 57 42 43 47 47 53 60 27 20 13 12 13 13 11 10 11 12 16 16 16 22 22 20 22 25 26 24 25 24 20 16 13 16 17 18 19 19
94 100 77 79 100 94 78 75 61 44 39 44 46 46 59 47 32 19 15 12 13 13 11 10 12 13 15 18 16 24 22 23 25 28 25 27 28 18 21 16 14 14 16 17 16
Wind_Speed
81 83 84 86 83 82 78 74 75 80 84 86 82 75 56 44 41 36 44 52 56 64 69 74 78 83 90 91 93 97 99 101 103 109 110 104 102 98 96 91 88 85 80 79 75
81 83 84 86 88 86 81 76 77 81 87 87 83 78 53 38 39 36 41 49 58 63 69 75 79 81 85 92 94 98 99 98 100 105 113 114 110 105 101 97 95 89 84 81 76
81 83 86 88 88 91 87 80 78 84 86 87 90 77 57 38 32 38 41 47 58 63 66 73 78 80 84 91 96 99 89 99 103 105 111 118 119 113 110 104 97 93 89 86 80
80 82 86 88 90 92 89 81 80 86 88 88 91 77 56 41 33 35 41 45 56 64 67 73 78 79 81 86 94 94 97 99 104 104 103 108 115 119 114 107 100 97 91 88 84
79 82 86 87 88 93 89 80 83 87 90 91 89 73 51 40 34 33 38 43 53 64 70 74 77 79 81 85 95 96 94 98 100 97 98 103 107 110 110 105 102 98 94 89 83
78 80 85 87 89 95 92 82 82 86 89 90 92 72 51 41 35 31 33 40 52 62 68 73 78 81 84 87 93 96 98 98 94 96 97 102 103 108 108 106 105 101 96 90 84
77 79 83 87 91 94 93 83 83 88 91 96 89 68 50 42 35 28 28 36 45 52 63 73 79 80 83 86 92 98 97 95 94 96 96 99 104 104 106 107 103 103 99 94 88
76 77 81 87 90 94 94 88 84 89 94 95 85 68 50 41 33 25 25 30 39 49 65 73 76 77 81 84 88 95 98 98 94 94 95 98 101 102 107 109 106 103 100 94 90
75 77 82 84 90 94 94 90 84 90 96 97 86 68 50 41 31 23 23 27 34 48 59 68 77 81 81 83 87 94 96 96 95 95 94 95 98 105 106 112 111 106 103 97 90
74 76 81 85 88 93 94 91 87 88 96 95 84 70 51 41 29 20 17 23 35 43 54 67 76 76 80 86 84 85 90 93 94 95 92 92 98 102 105 107 110 107 105 101 95
72 75 79 84 87 92 92 90 88 86 93 93 85 70 49 41 28 15 11 18 31 44 50 60 67 72 77 79 83 85 92 94 94 91 89 90 97 101 106 105 109 108 106 103 100
71 73 78 83 83 88 89 90 90 89 90 94 83 66 49 40 28 16 12 12 27 37 47 58 66 72 78 83 82 83 86 90 92 92 91 91 95 98 104 104 109 109 107 105 102
69 71 76 81 83 87 86 88 88 89 88 88 81 67 50 41 32 20 14 8 19 34 47 54 62 64 68 72 77 82 85 87 90 94 92 89 91 95 101 106 104 105 106 106 104
67 69 73 77 80 84 84 85 88 89 87 85 83 70 50 43 35 22 18 6 13 31 45 47 50 61 70 73 76 79 79 85 91 92 92 91 90 93 98 102 104 104 103 104 103
63 66 70 74 76 80 80 82 88 90 88 82 82 68 51 43 36 25 21 5 17 32 39 46 52 61 64 67 72 77 79 87 90 91 88 89 89 90 93 99 102 105 104 102 102
60 63 67 71 73 78 78 80 88 89 86 83 81 72 56 43 38 30 22 4 15 31 38 42 50 59 66 68 70 75 78 80 83 85 85 88 90 90 94 96 98 101 103 103 103
58 61 65 69 70 75 73 77 86 87 85 81 78 71 61 47 39 34 24 10 6 23 35 45 54 59 62 64 67 71 75 77 79 81 85 85 88 93 93 93 94 94 96 101 103
55 59 62 65 67 72 70 73 82 88 85 77 76 70 68 55 42 37 28 15 5 7 21 32 43 53 59 62 65 68 72 72 73 75 80 84 85 91 91 92 92 92 93 94 97
52 56 59 63 63 66 64 69 78 85 82 76 73 69 65 62 48 38 30 19 6 7 12 16 35 45 53 58 61 63 63 64 69 71 74 79 82 86 83 88 92 93 92 93 94
49 54 58 60 59 62 61 64 74 79 84 78 74 70 63 60 57 41 31 21 9 6 18 28 36 43 48 52 55 59 61 65 68 71 74 75 78 78 78 81 85 91 95 95 94
48 52 55 55 55 56 59 61 68 74 81 79 73 68 64 58 56 48 32 23 13 2 12 24 33 40 44 49 54 57 60 62 64 67 70 72 75 73 74 76 78 82 89 94 95
47 49 51 52 51 53 55 58 63 68 75 80 74 70 65 61 56 50 39 24 15 6 8 17 26 33 41 46 52 55 59 61 63 66 68 68 69 69 70 73 75 76 79 85 91
46 47 45 47 47 51 51 54 59 63 68 75 78 71 67 64 60 53 44 30 17 9 1 13 24 31 36 38 41 47 52 56 60 61 63 66 68 68 69 71 73 73 74 77 81
44 44 41 41 43 48 49 51 56 60 64 70 75 77 71 68 62 53 49 38 25 13 5 5 14 22 31 38 44 45 48 52 56 57 62 62 67 68 72 71 70 70 72 74 77
43 39 37 38 42 45 46 49 55 57 62 65 71 82 78 73 70 61 54 47 35 23 11 7 10 16 24 32 40 45 50 51 54 61 61 66 66 71 74 72 71 69 71 72 75
40 34 33 35 39 43 43 45 52 56 58 62 69 76 82 80 76 69 61 54 41 28 19 12 12 16 21 29 34 40 47 51 55 60 62 66 67 72 72 71 68 71 71 72 74
35 33 31 33 38 40 42 43 49 52 55 62 67 70 80 80 78 74 71 61 48 37 26 18 16 17 20 21 29 37 41 44 49 55 59 61 67 68 68 70 68 68 69 72 75
Wind_Direction
335 339 339 339 345 344 343 343 344 342 342 343 342 338 326 306 285 255 246 235 227 225 220 219 219 219 219 218 218 216 216 217 216 216 213 211 214 216 219 219 220 222 223 223 224
334 337 338 337 343 343 344 345 343 342 342 345 342 339 329 306 281 263 248 235 229 224 221 219 219 218 219 216 217 218 216 216 217 216 214 213 213 216 219 219 220 221 222 224 224
333 335 337 337 341 342 344 346 344 343 344 346 343 337 329 311 281 266 251 236 229 226 221 220 219 216 216 216 216 219 216 216 216 217 215 214 215 219 221 222 221 222 223 225 225
332 335 335 337 341 341 345 346 346 346 346 347 343 338 329 315 292 270 254 239 229 225 220 218 219 217 215 215 216 217 216 216 217 219 218 214 216 219 222 222 222 223 224 225 226
330 334 334 337 340 340 344 349 345 348 347 350 346 338 329 315 300 276 257 240 228 224 219 217 217 215 213 214 214 215 216 218 216 219 219 216 217 217 218 220 222 223 224 225 226
328 333 335 335 340 339 342 350 346 349 348 346 343 338 331 318 305 282 258 240 228 223 218 217 215 214 212 211 213 213 216 217 216 217 219 217 216 217 216 219 221 223 224 224 226
327 332 335 337 339 339 341 349 349 350 352 348 344 341 335 322 311 290 261 242 231 221 215 214 215 214 214 211 212 213 214 217 216 216 218 216 216 216 217 219 221 223 224 224 225
326 331 334 336 340 340 341 348 350 350 351 348 347 345 339 329 320 297 266 243 230 217 213 214 214 212 213 212 211 212 214 216 216 216 216 216 216 214 217 218 220 222 223 223 224
325 329 331 338 337 340 341 346 350 354 350 347 346 348 341 336 329 305 268 241 227 218 215 209 212 210 209 211 211 212 214 215 215 216 216 216 215 214 216 217 219 221 222 223 224
324 328 330 336 337 339 340 347 352 354 350 348 349 350 346 342 336 316 274 238 225 218 214 208 211 210 209 209 211 213 215 215 215 217 216 215 216 216 216 216 220 221 224 224 224
323 326 329 335 336 338 340 345 353 355 352 349 351 351 350 346 342 335 296 236 221 216 210 207 210 208 208 208 209 210 212 214 216 218 217 216 216 216 217 216 219 221 221 225 225
322 325 329 333 337 339 341 344 351 359 355 350 355 354 353 352 351 358 342 250 218 212 205 205 207 206 207 207 209 210 212 214 216 217 216 217 216 217 218 218 219 221 222 224 226
320 325 328 333 337 339 342 343 352 359 358 354 354 357 357 359 0 12 17 308 210 203 201 203 206 205 207 208 208 211 211 214 216 218 218 217 217 217 219 219 220 222 224 225 227
320 323 327 333 336 339 343 343 351 355 0 352 356 358 1 2 8 17 30 22 189 199 200 203 203 201 204 206 208 210 211 213 216 218 219 219 218 218 220 220 221 222 224 226 227
318 323 328 333 337 338 345 344 349 353 2 358 355 359 6 10 12 22 39 92 183 191 194 200 197 199 203 205 207 210 210 212 215 218 219 221 222 220 220 222 222 224 225 225 227
317 322 329 332 339 338 346 346 347 354 360 0 358 6 8 15 16 26 41 84 207 196 191 193 196 199 202 204 207 210 214 216 217 219 221 221 223 224 224 223 225 226 226 227 228
315 322 328 331 339 338 347 347 348 352 359 3 0 7 12 18 23 27 38 34 203 203 190 194 195 197 202 204 209 212 214 217 218 219 222 224 224 226 227 227 227 228 229 230 230
314 321 326 331 338 338 348 349 350 346 356 7 6 8 14 18 24 31 32 32 48 192 202 201 198 200 201 205 208 212 217 218 219 221 222 225 226 227 227 230 231 230 231 232 233
312 318 324 331 336 338 350 351 349 347 359 10 8 10 14 19 23 30 34 35 49 159 183 190 201 204 206 208 211 216 218 221 222 222 224 226 228 230 229 229 232 233 233 233 234
309 315 321 330 335 338 349 352 351 352 358 9 10 12 16 21 21 26 34 34 41 153 174 191 195 201 204 210 214 217 217 219 223 225 227 227 230 229 230 231 231 233 235 235 235
305 312 320 328 334 338 349 352 351 357 1 8 15 12 15 20 21 19 26 32 40 148 196 202 200 203 206 209 213 217 219 222 224 227 230 231 232 232 231 233 233 232 233 235 237
303 310 320 326 334 338 349 351 351 0 1 5 10 11 16 17 20 19 18 24 30 30 216 208 210 211 212 214 215 217 220 223 226 228 231 233 234 236 234 235 235 234 234 235 237
300 309 320 325 335 338 348 351 351 359 4 7 5 8 15 19 18 19 15 14 16 21 254 217 212 213 215 216 220 222 223 225 228 230 232 234 236 236 236 235 236 236 235 235 236
298 308 318 324 335 337 346 348 351 360 6 9 7 8 11 18 20 16 16 11 7 2 353 270 234 233 227 221 220 223 225 226 228 230 232 234 236 236 237 237 238 238 238 237 237
296 306 316 323 333 335 342 347 351 359 7 8 10 10 12 10 17 19 18 10 2 352 338 304 269 241 241 237 231 227 226 228 228 229 230 233 234 236 239 236 238 238 239 239 239
292 306 314 321 331 334 340 345 352 356 5 11 13 15 13 11 10 14 16 13 12 357 337 305 273 258 239 238 238 242 235 233 233 236 234 237 237 240 240 243 239 240 240 241 242
293 302 312 322 328 332 335 344 349 355 5 12 15 15 16 11 6 9 12 10 9 3 348 326 292 269 259 250 240 240 246 243 240 241 243 244 244 246 246 248 246 242 243 244 244